Location: Baili�vre
(50.0696°N, 4.2409°E)
Time: 00:09:53
(UTC+00:00)

Resurs 1-3 - Pass Details

Date: 08 August 2020
Orbit: 629 x 632 km, 97.9° (Epoch: 20 September)

Event Time Altitude Azimuth Distance (km) Brightness Sun altitude
Rises 20:12:43 0° 178° (S) 2,910 6.6 -8.9°
Reaches altitude 10° 20:14:57 10° 183° (S) 2,007 5.8 -9.1°
Maximum altitude 20:19:12 52° 260° (W) 792 4.4 -9.7°
Drops below altitude 10° 20:23:31 10° 337° (NNW) 2,026 7.3 -10.2°
Sets 20:25:47 0° 343° (NNW) 2,940 8.1 -10.5°
